Weather History for Delaware, OH

Change the Weather History Date:

Thursday, August 14, 2014

  Actual Average Record
Temperature  
Mean Temperature 61 °F -  
Max Temperature 71 °F 82 °F 93 °F (1938)
Min Temperature 51 °F 57 °F 43 °F (1964)
Degree Days  
Heating Degree Days 4    
Growing Degree Days 11 (Base 50)    
Moisture  
Dew Point 52 °F    
Average Humidity 70    
Maximum Humidity 94    
Minimum Humidity 46    
Precipitation  
Precipitation 0.00 in - - ()
Sea Level Pressure  
Sea Level Pressure 30.02 in    
Wind  
Wind Speed 6 mph (NW)    
Max Wind Speed 15 mph    
Max Gust Speed 22 mph    
Visibility 10 miles    
Events      
Averages and records for this station are not official NWS values.
T = Trace of Precipitation, MM = Missing Value Source: NWS Daily Summary

Daily Weather History Graph

Daily Weather History Graph

Search for Another Location

Airport:

Trip Planner

Search our weather history database for the weather conditions in past years. The results will help you decide how hot, cold, wet, or windy it might be!

Date:

Astronomy

Aug. 14, 2014 Rise Set
Actual Time 6:42 AM EDT 8:30 PM EDT
Civil Twilight 6:13 AM EDT 9:00 PM EDT
Nautical Twilight 5:37 AM EDT 9:35 PM EDT
Astronomical Twilight 4:59 AM EDT 10:13 PM EDT
Moon 10:52 PM EDT (8/14) 11:18 AM EDT (8/14)
Length of Visible Light 14h 46m
Length of Day
13h 48m
Waning Gibbous, 79% of the Moon is Illuminated
Aug 14
Waning Gibbous
Aug 17
Last Quarter
Aug 25
New
Sep 2
First Quarter
Sep 8
Full

Hourly Weather History & Observations

Time (EDT) Temp. Dew Point Humidity Pressure Visibility Wind Dir Wind Speed Gust Speed Precip Events Conditions
12:18 AM 60.8 °F 55.4 °F 82% 30.00 in 10.0 mi WSW 3.5 mph - N/A   Clear
12:38 AM 60.8 °F 55.4 °F 82% 30.00 in 10.0 mi WSW 3.5 mph - N/A   Clear
12:57 AM 60.8 °F 53.6 °F 77% 30.00 in 10.0 mi WSW 3.5 mph - N/A   Clear
1:18 AM 60.8 °F 55.4 °F 82% 30.00 in 10.0 mi WSW 4.6 mph - N/A   Scattered Clouds
1:38 AM 60.8 °F 55.4 °F 82% 30.00 in 10.0 mi West 4.6 mph - N/A   Mostly Cloudy
1:57 AM 60.8 °F 55.4 °F 82% 29.99 in 10.0 mi West 5.8 mph - N/A   Scattered Clouds
2:18 AM 60.8 °F 55.4 °F 82% 29.99 in 10.0 mi WNW 6.9 mph - N/A   Scattered Clouds
2:38 AM 60.8 °F 55.4 °F 82% 29.99 in 10.0 mi WNW 5.8 mph - N/A   Mostly Cloudy
2:57 AM 59.0 °F 55.4 °F 88% 29.99 in 10.0 mi WNW 5.8 mph - N/A   Scattered Clouds
3:18 AM 59.0 °F 55.4 °F 88% 29.99 in 10.0 mi West 6.9 mph - N/A   Clear
3:38 AM 59.0 °F 55.4 °F 88% 29.99 in 10.0 mi West 6.9 mph - N/A   Clear
3:57 AM 59.0 °F 55.4 °F 88% 29.99 in 10.0 mi WNW 6.9 mph - N/A   Clear
4:18 AM 59.0 °F 53.6 °F 82% 29.99 in 10.0 mi WNW 6.9 mph - N/A   Clear
4:38 AM 59.0 °F 53.6 °F 82% 29.99 in 10.0 mi WNW 6.9 mph - N/A   Clear
4:57 AM 57.2 °F 53.6 °F 88% 30.00 in 10.0 mi NW 8.1 mph - N/A   Clear
5:18 AM 57.2 °F 53.6 °F 88% 30.00 in 10.0 mi NW 8.1 mph - N/A   Clear
5:37 AM 57.2 °F 51.8 °F 82% 30.00 in 10.0 mi NW 6.9 mph - N/A   Clear
5:57 AM 55.4 °F 51.8 °F 88% 30.00 in 10.0 mi NW 4.6 mph - N/A   Clear
6:18 AM 55.4 °F 51.8 °F 88% 30.01 in 10.0 mi NW 3.5 mph - N/A   Clear
6:37 AM 53.6 °F 51.8 °F 94% 30.01 in 10.0 mi NW 3.5 mph - N/A   Clear
6:57 AM 53.6 °F 51.8 °F 94% 30.02 in 10.0 mi NW 5.8 mph - N/A   Clear
7:18 AM 53.6 °F 51.8 °F 94% 30.02 in 10.0 mi NW 4.6 mph - N/A   Clear
7:37 AM 55.4 °F 51.8 °F 88% 30.03 in 10.0 mi WNW 4.6 mph - N/A   Clear
7:57 AM 55.4 °F 53.6 °F 94% 30.04 in 10.0 mi NW 5.8 mph - N/A   Clear
8:18 AM 57.2 °F 51.8 °F 82% 30.05 in 10.0 mi NW 4.6 mph - N/A   Clear
8:37 AM 59.0 °F 53.6 °F 82% 30.05 in 10.0 mi NW 5.8 mph - N/A   Clear
8:57 AM 59.0 °F 51.8 °F 77% 30.06 in 10.0 mi NW 5.8 mph - N/A   Clear
9:18 AM 60.8 °F 51.8 °F 72% 30.06 in 10.0 mi NW 5.8 mph - N/A   Clear
9:37 AM 60.8 °F 51.8 °F 72% 30.06 in 10.0 mi NNW 4.6 mph - N/A   Clear
9:57 AM 62.6 °F 51.8 °F 68% 30.06 in 10.0 mi NW 4.6 mph - N/A   Clear
10:18 AM 64.4 °F 51.8 °F 64% 30.06 in 10.0 mi NW 5.8 mph - N/A   Clear
10:37 AM 64.4 °F 53.6 °F 68% 30.06 in 10.0 mi NNW 6.9 mph - N/A   Clear
10:58 AM 64.4 °F 51.8 °F 64% 30.06 in 10.0 mi NNW 6.9 mph - N/A   Clear
11:18 AM 66.2 °F 51.8 °F 60% 30.07 in 10.0 mi NNW 8.1 mph - N/A   Clear
11:37 AM 66.2 °F 51.8 °F 60% 30.06 in 10.0 mi NNW 9.2 mph - N/A   Clear
11:58 AM 66.2 °F 51.8 °F 60% 30.06 in 10.0 mi NNW 5.8 mph - N/A   Clear
12:18 PM 68.0 °F 51.8 °F 56% 30.06 in 10.0 mi NNW 8.1 mph - N/A   Clear
12:38 PM 68.0 °F 51.8 °F 56% 30.05 in 10.0 mi NW 10.4 mph - N/A   Clear
12:58 PM 68.0 °F 51.8 °F 56% 30.04 in 10.0 mi NW 9.2 mph - N/A   Clear
1:17 PM 68.0 °F 51.8 °F 56% 30.04 in 10.0 mi North 9.2 mph - N/A   Clear
1:38 PM 68.0 °F 51.8 °F 56% 30.03 in 10.0 mi North 11.5 mph - N/A   Scattered Clouds
1:54 PM 69.8 °F 51.8 °F 53% 30.03 in 10.0 mi NNW 9.2 mph - N/A   Scattered Clouds
2:14 PM 69.8 °F 51.8 °F 53% 30.03 in 10.0 mi NNW 13.8 mph 20.7 mph N/A   Scattered Clouds
2:34 PM 69.8 °F 53.6 °F 56% 30.03 in 10.0 mi NW 8.1 mph 20.7 mph N/A   Scattered Clouds
2:54 PM 71.6 °F 53.6 °F 53% 30.02 in 10.0 mi NNW 10.4 mph 18.4 mph N/A   Scattered Clouds
3:14 PM 69.8 °F 51.8 °F 53% 30.02 in 10.0 mi NW 15.0 mph 20.7 mph N/A   Scattered Clouds
3:34 PM 69.8 °F 51.8 °F 53% 30.02 in 10.0 mi WNW 10.4 mph 18.4 mph N/A   Scattered Clouds
3:53 PM 69.8 °F 51.8 °F 53% 30.01 in 10.0 mi NW 11.5 mph 17.3 mph N/A   Scattered Clouds
4:14 PM 68.0 °F 51.8 °F 56% 30.01 in 10.0 mi NW 12.7 mph 19.6 mph N/A   Mostly Cloudy
4:34 PM 69.8 °F 51.8 °F 53% 30.01 in 10.0 mi NW 10.4 mph 19.6 mph N/A   Scattered Clouds
4:53 PM 69.8 °F 51.8 °F 53% 30.01 in 10.0 mi NNW 11.5 mph - N/A   Scattered Clouds
5:14 PM 69.8 °F 51.8 °F 53% 30.01 in 10.0 mi NNW 9.2 mph 18.4 mph N/A   Scattered Clouds
5:34 PM 69.8 °F 50.0 °F 49% 30.00 in 10.0 mi NNW 12.7 mph 21.9 mph N/A   Clear
5:53 PM 69.8 °F 50.0 °F 49% 30.00 in 10.0 mi WNW 10.4 mph 20.7 mph N/A   Scattered Clouds
6:14 PM 68.0 °F 48.2 °F 49% 30.01 in 10.0 mi NW 12.7 mph 21.9 mph N/A   Clear
6:34 PM 69.8 °F 48.2 °F 46% 30.00 in 10.0 mi NW 10.4 mph - N/A   Clear
6:53 PM 68.0 °F 46.4 °F 46% 30.00 in 10.0 mi NW 9.2 mph 16.1 mph N/A   Scattered Clouds
7:14 PM 68.0 °F 46.4 °F 46% 30.00 in 10.0 mi NW 9.2 mph - N/A   Scattered Clouds
7:34 PM 68.0 °F 46.4 °F 46% 30.00 in 10.0 mi NW 9.2 mph 16.1 mph N/A   Clear
7:54 PM 64.4 °F 48.2 °F 56% 30.00 in 10.0 mi NW 4.6 mph - N/A   Clear
8:14 PM 62.6 °F 50.0 °F 63% 30.00 in 10.0 mi Calm Calm - N/A   Clear
8:34 PM 62.6 °F 48.2 °F 59% 30.00 in 10.0 mi NNW 4.6 mph - N/A   Clear
8:54 PM 60.8 °F 48.2 °F 63% 30.01 in 10.0 mi NNW 3.5 mph - N/A   Clear
9:14 PM 60.8 °F 46.4 °F 59% 30.01 in 10.0 mi North 3.5 mph - N/A   Clear
9:34 PM 60.8 °F 46.4 °F 59% 30.02 in 10.0 mi North 3.5 mph - N/A   Clear
9:54 PM 59.0 °F 46.4 °F 63% 30.02 in 10.0 mi Calm Calm - N/A   Clear
10:14 PM 55.4 °F 48.2 °F 77% 30.03 in 10.0 mi Calm Calm - N/A   Clear
10:33 PM 53.6 °F 48.2 °F 82% 30.03 in 10.0 mi Calm Calm - N/A   Clear
10:54 PM 53.6 °F 48.2 °F 82% 30.03 in 10.0 mi Calm Calm - N/A   Clear
11:14 PM 51.8 °F 46.4 °F 82% 30.03 in 10.0 mi Calm Calm - N/A   Clear
11:33 PM 51.8 °F 48.2 °F 88% 30.03 in 10.0 mi Calm Calm - N/A   Clear
11:54 PM 51.8 °F 48.2 °F 88% 30.03 in 10.0 mi Calm Calm - N/A   Clear